COSMOS 2251 DEB, 35453

Orbit data source: Space-Track

COSMOS 2251 DEB, 35453 is space debris in LEO originally from a launch on Wed, 16 Jun 1993 UTC launched from the Plesetsk Missile And Space Complex (PKMTR). The debris from Iridium 33, an American commercial communications satellite, has been tracked extensively since its accidental collision with the defunct Russian satellite Cosmos 2251 in 2009. This event, occurring at high speed in low Earth orbit (LEO), generated thousands of pieces of space debris, significantly increasing the risk of further collisions. The Iridium 33 debris cloud has impacted space traffic management and orbital debris mitigation strategies, making it a subject of ongoing study in space situational awareness.

Loading next visibility...
Identifier
35453, 1993-036AKX
Orbit
LEO
Country
Flag of CISCIS
Related business
Manufacturer
Unknown
Mission
Spacecraft
Bus & Motor
Unknown
Mass
Unknown
Launch date (UTC)
1993-06-16 (33 years ago)
Launch vehicle
Unknown
Launch site
Plesetsk Missile And Space Complex (PKMTR)
Object type
Payload
Rocket body
Debris
Shape & HBR
Unknown shape, 0.1 m
Radar Cross Section
Small (<0.1 m²)

Expand to show TLE details & history
Last TLE update: 2 days ago

TLE from 2 days ago
0 COSMOS 2251 DEB
1 35453U 93036AKX 26207.02687985  .00001864  00000-0  59780-3 0  9994
2 35453  74.0106 324.4017 0068356  42.1134 318.5244 14.38859696894584
Epoch: 2026-07-26T00:38Z
TLE epoch observation values (Epoch: 2026-07-26T00:38:42.419Z)
Latitude
0.00003°
Longitude
10.99425°
Altitude
728.453 km
Speed
7.51 km/s
True Right ascension
21h 37m 36s
True Declination
0° 00' 00"
Sunlit
Object was in full shadow at epoch
Visualization orbit readout
Latitude
Unknown
Longitude
Unknown
Altitude
Unknown
Speed
Unknown
Apparent Right ascension
Unknown
Apparent Declination
Unknown
Sunlit
N/A
Visualization observer readout
Local Sidereal Time
08:33:58
Azimuth
Unknown
Elevation
Unknown
Doppler factor
Unknown
Orbital elements
Apogee altitude
808.684 km
Perigee altitude
711.099 km
Semi-major axis
7,138.028 km
Eccentricity
0.00684
Inclination
74.0106°
RAAN
324.4017°
Arg. of periapsis
42.1134°
True anomaly
318.00228°
Mean anomaly
318.5244°
Eccentric anomaly
318.26368°
Mean motion
3.59895 °/min
Orbital period
100.03 mins
BSTAR
0.0005978
Loading maneuver chart data...
Computing Atmospheric mass density...

Documentation

Showing up to 5 results
|